Time,TemperatureF,DewpointF,PressureIn,WindDirection,WindDirectionDegrees,WindSpeedMPH,WindSpeedGustMPH,Humidity,HourlyPrecipIn,Conditions,Clouds,dailyrainin,SoftwareType,DateUTC
2013-02-12 00:00:00,34.4,31.5,30.16,SSW,195,0.0,0.0,89,0.00,FEW,,0.00,WeatherDisplay:10.37,2013-02-12 06:00:00,
2013-02-12 00:05:00,34.3,31.4,30.16,SSW,195,0.0,0.0,89,0.00,BKN,FEW,0.00,WeatherDisplay:10.37,2013-02-12 06:05:00,
2013-02-12 00:10:00,34.2,31.6,30.17,SSW,196,0.0,0.0,90,0.00,BKN,FEW,0.00,WeatherDisplay:10.37,2013-02-12 06:10:00,
2013-02-12 00:15:00,34.1,31.5,30.17,SSW,195,0.0,0.0,90,0.00,BKN,FEW,0.00,WeatherDisplay:10.37,2013-02-12 06:15:00,
2013-02-12 00:20:00,34.1,31.5,30.17,SSW,196,0.0,0.0,90,0.00,BKN,FEW,0.00,WeatherDisplay:10.37,2013-02-12 06:20:00,
2013-02-12 00:25:00,33.9,31.3,30.18,SSW,195,0.0,0.0,90,0.00,BKN,FEW,0.00,WeatherDisplay:10.37,2013-02-12 06:25:00,
2013-02-12 00:30:00,33.8,31.2,30.18,SSW,196,0.0,0.0,90,0.00,BKN,FEW,0.00,WeatherDisplay:10.37,2013-02-12 06:30:00,
2013-02-12 00:35:00,33.8,31.2,30.18,SSW,196,0.0,0.0,90,0.00,BKN,FEW,0.00,WeatherDisplay:10.37,2013-02-12 06:35:00,
2013-02-12 00:40:00,33.7,31.1,30.18,SSW,196,0.0,0.0,90,0.00,BKN,FEW,0.00,WeatherDisplay:10.37,2013-02-12 06:40:00,
2013-02-12 00:45:00,33.6,31.0,30.17,SSW,195,0.0,0.0,90,0.00,BKN,FEW,0.00,WeatherDisplay:10.37,2013-02-12 06:45:00,
2013-02-12 00:50:00,33.5,30.9,30.17,SSW,195,0.0,0.0,90,0.00,BKN,FEW,0.00,WeatherDisplay:10.37,2013-02-12 06:50:00,
2013-02-12 00:55:00,33.3,30.7,30.17,SSW,195,0.0,0.0,90,0.00,BKN,FEW,0.00,WeatherDisplay:10.37,2013-02-12 06:55:00,
2013-02-12 01:00:00,33.2,30.9,30.18,SSW,196,0.0,0.0,91,0.00,BKN,FEW,0.00,WeatherDisplay:10.37,2013-02-12 07:00:00,
2013-02-12 01:05:00,33.1,30.8,30.18,SSW,196,0.0,0.0,91,0.00,BKN,FEW,0.00,WeatherDisplay:10.37,2013-02-12 07:05:00,
2013-02-12 01:10:00,33.0,30.7,30.18,SSW,196,0.0,0.0,91,0.00,BKN,FEW,0.00,WeatherDisplay:10.37,2013-02-12 07:10:00,
2013-02-12 01:15:00,32.9,30.6,30.18,SSW,196,0.0,0.0,91,0.00,BKN,FEW,0.00,WeatherDisplay:10.37,2013-02-12 07:15:00,
2013-02-12 01:20:00,32.9,30.8,30.18,SSW,195,0.0,0.0,92,0.00,BKN,FEW,0.00,WeatherDisplay:10.37,2013-02-12 07:20:00,
2013-02-12 01:25:00,32.8,30.7,30.18,SSW,196,0.0,0.0,92,0.00,BKN,FEW,0.00,WeatherDisplay:10.37,2013-02-12 07:25:00,
2013-02-12 01:30:00,32.7,30.4,30.17,SSW,195,0.0,0.0,91,0.00,BKN,FEW,0.00,WeatherDisplay:10.37,2013-02-12 07:30:00,
2013-02-12 01:35:00,32.6,30.5,30.17,SSW,196,0.0,0.0,92,0.00,BKN,FEW,0.00,WeatherDisplay:10.37,2013-02-12 07:35:00,
2013-02-12 01:40:00,32.6,30.5,30.17,SSW,195,0.0,0.0,92,0.00,BKN,FEW,0.00,WeatherDisplay:10.37,2013-02-12 07:40:00,
2013-02-12 01:45:00,32.5,30.4,30.18,SSW,195,0.0,0.0,92,0.00,BKN,FEW,0.00,WeatherDisplay:10.37,2013-02-12 07:45:00,
2013-02-12 01:50:00,32.5,30.4,30.17,SSW,196,0.0,0.0,92,0.00,BKN,FEW,0.00,WeatherDisplay:10.37,2013-02-12 07:50:00,
2013-02-12 01:55:00,32.6,30.5,30.17,SSW,195,0.0,0.0,92,0.00,BKN,FEW,0.00,WeatherDisplay:10.37,2013-02-12 07:55:00,
2013-02-12 02:00:00,32.6,30.5,30.17,SSW,195,0.0,0.0,92,0.00,BKN,FEW,0.00,WeatherDisplay:10.37,2013-02-12 08:00:00,
2013-02-12 02:05:00,32.6,30.5,30.18,SSW,195,0.0,0.0,92,0.00,FEW,,0.00,WeatherDisplay:10.37,2013-02-12 08:05:00,
2013-02-12 02:10:00,32.5,30.4,30.18,SSW,195,0.0,0.0,92,0.00,FEW,,0.00,WeatherDisplay:10.37,2013-02-12 08:10:00,
2013-02-12 02:15:00,32.4,30.3,30.18,SSW,196,0.0,0.0,92,0.00,FEW,,0.00,WeatherDisplay:10.37,2013-02-12 08:15:00,
2013-02-12 02:20:00,32.3,30.2,30.18,SSW,196,0.0,0.0,92,0.00,FEW,,0.00,WeatherDisplay:10.37,2013-02-12 08:20:00,
2013-02-12 02:26:00,32.3,30.5,30.18,SSW,196,0.0,0.0,93,0.00,FEW,,0.00,WeatherDisplay:10.37,2013-02-12 08:26:00,
2013-02-12 02:31:00,32.5,30.7,30.17,SSW,196,0.0,0.0,93,0.00,FEW,,0.00,WeatherDisplay:10.37,2013-02-12 08:31:00,
2013-02-12 02:36:00,32.5,30.7,30.18,SSW,196,0.0,0.0,93,0.00,FEW,,0.00,WeatherDisplay:10.37,2013-02-12 08:36:00,
2013-02-12 02:41:00,32.5,30.7,30.18,SSW,196,0.0,0.0,93,0.00,FEW,,0.00,WeatherDisplay:10.37,2013-02-12 08:41:00,
2013-02-12 02:46:00,32.4,30.6,30.17,SSW,195,0.0,0.0,93,0.00,FEW,,0.00,WeatherDisplay:10.37,2013-02-12 08:46:00,
2013-02-12 02:51:00,32.4,30.6,30.17,SSW,195,0.0,0.0,93,0.00,FEW,,0.00,WeatherDisplay:10.37,2013-02-12 08:51:00,
2013-02-12 02:56:00,32.4,30.6,30.18,SSW,196,0.0,0.0,93,0.00,FEW,,0.00,WeatherDisplay:10.37,2013-02-12 08:56:00,
2013-02-12 03:01:00,32.4,30.6,30.18,SSW,195,0.0,0.0,93,0.00,BKN,FEW,0.00,WeatherDisplay:10.37,2013-02-12 09:01:00,
2013-02-12 03:06:00,32.4,30.6,30.18,SSW,195,0.0,0.0,93,0.00,BKN,FEW,0.00,WeatherDisplay:10.37,2013-02-12 09:06:00,
2013-02-12 03:11:00,32.4,30.6,30.18,SSW,195,0.0,0.0,93,0.00,BKN,FEW,0.00,WeatherDisplay:10.37,2013-02-12 09:11:00,
2013-02-12 03:16:00,32.2,30.4,30.18,SSW,196,0.0,0.0,93,0.00,BKN,FEW,0.00,WeatherDisplay:10.37,2013-02-12 09:16:00,
2013-02-12 03:21:00,32.0,30.2,30.18,SSW,195,0.0,0.0,93,0.00,BKN,FEW,0.00,WeatherDisplay:10.37,2013-02-12 09:21:00,
2013-02-12 03:26:00,32.0,30.2,30.18,SSW,195,0.0,0.0,93,0.00,BKN,FEW,0.00,WeatherDisplay:10.37,2013-02-12 09:26:00,
2013-02-12 03:31:00,31.9,30.1,30.18,SSW,195,0.0,0.0,93,0.00,BKN,FEW,0.00,WeatherDisplay:10.37,2013-02-12 09:31:00,
2013-02-12 03:36:00,31.8,30.0,30.18,SSW,195,0.0,0.0,93,0.00,BKN,FEW,0.00,WeatherDisplay:10.37,2013-02-12 09:36:00,
2013-02-12 03:41:00,31.6,29.8,30.18,SSW,196,0.0,0.0,93,0.00,BKN,FEW,0.00,WeatherDisplay:10.37,2013-02-12 09:41:00,
2013-02-12 03:46:00,31.6,29.8,30.18,SSW,196,1.1,1.1,93,0.00,BKN,FEW,0.00,WeatherDisplay:10.37,2013-02-12 09:46:00,
2013-02-12 03:51:00,31.4,29.6,30.18,SSW,192,1.1,1.1,93,0.00,BKN,FEW,0.00,WeatherDisplay:10.37,2013-02-12 09:51:00,
2013-02-12 03:56:00,31.2,29.4,30.18,South,188,0.0,0.0,93,0.00,BKN,FEW,0.00,WeatherDisplay:10.37,2013-02-12 09:56:00,
2013-02-12 04:01:00,31.1,29.3,30.18,South,188,0.0,0.0,93,0.00,CLR,FEW,0.00,WeatherDisplay:10.37,2013-02-12 10:01:00,
2013-02-12 04:06:00,30.8,29.0,30.18,South,188,0.0,0.0,93,0.00,CLR,FEW,0.00,WeatherDisplay:10.37,2013-02-12 10:06:00,
2013-02-12 04:11:00,30.6,28.8,30.18,South,188,0.0,0.0,93,0.00,CLR,FEW,0.00,WeatherDisplay:10.37,2013-02-12 10:11:00,
2013-02-12 04:16:00,30.5,29.0,30.18,South,184,2.3,2.3,94,0.00,CLR,FEW,0.00,WeatherDisplay:10.37,2013-02-12 10:16:00,
2013-02-12 04:21:00,30.4,28.9,30.18,South,184,1.1,1.1,94,0.00,CLR,FEW,0.00,WeatherDisplay:10.37,2013-02-12 10:21:00,
2013-02-12 04:26:00,30.5,29.0,30.18,South,184,0.0,0.0,94,0.00,CLR,FEW,0.00,WeatherDisplay:10.37,2013-02-12 10:26:00,
2013-02-12 04:31:00,30.4,28.9,30.18,South,184,0.0,0.0,94,0.00,CLR,FEW,0.00,WeatherDisplay:10.37,2013-02-12 10:31:00,
2013-02-12 04:36:00,30.2,28.7,30.18,South,184,0.0,0.0,94,0.00,CLR,FEW,0.00,WeatherDisplay:10.37,2013-02-12 10:36:00,
2013-02-12 04:41:00,30.1,28.6,30.18,South,184,0.0,0.0,94,0.00,CLR,FEW,0.00,WeatherDisplay:10.37,2013-02-12 10:41:00,
2013-02-12 04:46:00,30.0,28.5,30.18,South,184,0.0,0.0,94,0.00,CLR,FEW,0.00,WeatherDisplay:10.37,2013-02-12 10:46:00,
2013-02-12 04:51:00,30.0,28.5,30.17,South,184,0.0,0.0,94,0.00,CLR,FEW,0.00,WeatherDisplay:10.37,2013-02-12 10:51:00,
2013-02-12 04:56:00,30.2,28.9,30.18,South,184,0.0,0.0,95,0.00,CLR,FEW,0.00,WeatherDisplay:10.37,2013-02-12 10:56:00,
2013-02-12 05:01:00,30.3,29.0,30.18,South,184,0.0,0.0,95,0.00,FEW,,0.00,WeatherDisplay:10.37,2013-02-12 11:01:00,
2013-02-12 05:06:00,30.2,28.9,30.18,South,184,0.0,0.0,95,0.00,FEW,,0.00,WeatherDisplay:10.37,2013-02-12 11:06:00,
2013-02-12 05:11:00,30.1,28.6,30.18,South,184,0.0,0.0,94,0.00,FEW,,0.00,WeatherDisplay:10.37,2013-02-12 11:11:00,
2013-02-12 05:16:00,29.9,28.4,30.18,South,184,0.0,0.0,94,0.00,FEW,,0.00,WeatherDisplay:10.37,2013-02-12 11:16:00,
2013-02-12 05:21:00,29.8,28.3,30.18,South,184,0.0,0.0,94,0.00,FEW,,0.00,WeatherDisplay:10.37,2013-02-12 11:21:00,
2013-02-12 05:26:00,29.7,28.2,30.18,South,184,0.0,0.0,94,0.00,FEW,,0.00,WeatherDisplay:10.37,2013-02-12 11:26:00,
2013-02-12 05:31:00,29.6,28.1,30.19,South,184,0.0,0.0,94,0.00,FEW,,0.00,WeatherDisplay:10.37,2013-02-12 11:31:00,
2013-02-12 05:36:00,29.6,28.1,30.19,South,184,0.0,0.0,94,0.00,FEW,,0.00,WeatherDisplay:10.37,2013-02-12 11:36:00,
2013-02-12 05:41:00,29.5,28.0,30.18,South,184,1.1,0.0,94,0.00,FEW,,0.00,WeatherDisplay:10.37,2013-02-12 11:41:00,
2013-02-12 05:46:00,29.6,28.1,30.18,South,184,1.1,1.1,94,0.00,FEW,,0.00,WeatherDisplay:10.37,2013-02-12 11:46:00,
2013-02-12 05:51:00,29.5,28.0,30.18,South,184,0.0,0.0,94,0.00,FEW,,0.00,WeatherDisplay:10.37,2013-02-12 11:51:00,
2013-02-12 05:56:00,29.5,28.0,30.18,South,184,0.0,0.0,94,0.00,FEW,,0.00,WeatherDisplay:10.37,2013-02-12 11:56:00,
2013-02-12 06:01:00,29.4,27.9,30.18,South,184,0.0,0.0,94,0.00,CLR,FEW,0.00,WeatherDisplay:10.37,2013-02-12 12:01:00,
2013-02-12 06:06:00,29.4,27.9,30.18,South,184,0.0,0.0,94,0.00,CLR,FEW,0.00,WeatherDisplay:10.37,2013-02-12 12:06:00,
2013-02-12 06:11:00,29.4,27.9,30.18,South,184,0.0,0.0,94,0.00,CLR,FEW,0.00,WeatherDisplay:10.37,2013-02-12 12:11:00,
2013-02-12 06:16:00,29.4,27.9,30.18,South,184,0.0,0.0,94,0.00,CLR,FEW,0.00,WeatherDisplay:10.37,2013-02-12 12:16:00,
2013-02-12 06:21:00,29.3,27.8,30.17,South,184,0.0,0.0,94,0.00,CLR,FEW,0.00,WeatherDisplay:10.37,2013-02-12 12:21:00,
2013-02-12 06:26:00,29.3,28.0,30.17,South,184,0.0,0.0,95,0.00,CLR,FEW,0.00,WeatherDisplay:10.37,2013-02-12 12:26:00,
2013-02-12 06:31:00,29.3,28.0,30.17,South,184,0.0,0.0,95,0.00,CLR,FEW,0.00,WeatherDisplay:10.37,2013-02-12 12:31:00,
2013-02-12 06:36:00,29.3,28.0,30.17,South,184,0.0,0.0,95,0.00,CLR,FEW,0.00,WeatherDisplay:10.37,2013-02-12 12:36:00,
2013-02-12 06:41:00,29.2,27.9,30.17,South,184,0.0,0.0,95,0.00,CLR,FEW,0.00,WeatherDisplay:10.37,2013-02-12 12:41:00,
2013-02-12 06:46:00,29.2,27.9,30.17,South,184,0.0,0.0,95,0.00,CLR,FEW,0.00,WeatherDisplay:10.37,2013-02-12 12:46:00,
2013-02-12 06:51:00,29.2,27.9,30.17,South,184,0.0,0.0,95,0.00,CLR,FEW,0.00,WeatherDisplay:10.37,2013-02-12 12:51:00,
2013-02-12 06:56:00,29.2,27.9,30.17,South,184,0.0,0.0,95,0.00,CLR,FEW,0.00,WeatherDisplay:10.37,2013-02-12 12:56:00,
2013-02-12 07:01:00,29.2,27.9,30.17,South,184,0.0,0.0,95,0.00,CLR,FEW,0.00,WeatherDisplay:10.37,2013-02-12 13:01:00,
2013-02-12 07:06:00,29.1,27.8,30.17,South,184,0.0,0.0,95,0.00,CLR,FEW,0.00,WeatherDisplay:10.37,2013-02-12 13:06:00,
2013-02-12 07:11:00,29.0,27.7,30.17,South,184,0.0,0.0,95,0.00,CLR,FEW,0.00,WeatherDisplay:10.37,2013-02-12 13:11:00,
2013-02-12 07:16:00,29.1,27.8,30.17,South,184,0.0,0.0,95,0.00,CLR,FEW,0.00,WeatherDisplay:10.37,2013-02-12 13:16:00,
2013-02-12 07:22:00,29.1,28.1,30.16,South,184,0.0,0.0,96,0.00,CLR,FEW,0.00,WeatherDisplay:10.37,2013-02-12 13:22:00,
2013-02-12 07:27:00,29.3,28.3,30.16,South,184,0.0,0.0,96,0.00,CLR,FEW,0.00,WeatherDisplay:10.37,2013-02-12 13:27:00,
2013-02-12 07:32:00,29.5,28.5,30.16,South,184,0.0,0.0,96,0.00,CLR,FEW,0.00,WeatherDisplay:10.37,2013-02-12 13:32:00,
2013-02-12 07:37:00,29.8,28.8,30.16,South,184,0.0,0.0,96,0.00,CLR,FEW,0.00,WeatherDisplay:10.37,2013-02-12 13:37:00,
2013-02-12 07:42:00,30.1,29.1,30.16,South,184,0.0,0.0,96,0.00,CLR,FEW,0.00,WeatherDisplay:10.37,2013-02-12 13:42:00,
2013-02-12 07:47:00,30.4,29.4,30.16,South,184,0.0,0.0,96,0.00,CLR,FEW,0.00,WeatherDisplay:10.37,2013-02-12 13:47:00,
2013-02-12 07:52:00,30.6,29.6,30.16,South,184,0.0,0.0,96,0.00,CLR,FEW,0.00,WeatherDisplay:10.37,2013-02-12 13:52:00,
2013-02-12 07:57:00,30.8,29.8,30.15,South,184,0.0,0.0,96,0.00,CLR,FEW,0.00,WeatherDisplay:10.37,2013-02-12 13:57:00,
2013-02-12 08:02:00,31.0,30.0,30.15,South,184,0.0,0.0,96,0.00,CLR,FEW,0.00,WeatherDisplay:10.37,2013-02-12 14:02:00,
2013-02-12 08:07:00,31.5,30.5,30.14,South,184,0.0,0.0,96,0.00,CLR,FEW,0.00,WeatherDisplay:10.37,2013-02-12 14:07:00,
2013-02-12 08:12:00,32.0,31.2,30.15,South,184,0.0,0.0,97,0.00,CLR,FEW,0.00,WeatherDisplay:10.37,2013-02-12 14:12:00,
2013-02-12 08:17:00,32.6,31.8,30.14,South,184,0.0,0.0,97,0.00,CLR,FEW,0.00,WeatherDisplay:10.37,2013-02-12 14:17:00,
2013-02-12 08:22:00,33.4,32.6,30.14,South,184,0.0,0.0,97,0.00,CLR,FEW,0.00,WeatherDisplay:10.37,2013-02-12 14:22:00,
2013-02-12 08:27:00,34.4,33.6,30.14,South,184,0.0,0.0,97,0.00,CLR,FEW,0.00,WeatherDisplay:10.37,2013-02-12 14:27:00,
2013-02-12 08:32:00,35.5,34.7,30.15,South,184,0.0,0.0,97,0.00,CLR,FEW,0.00,WeatherDisplay:10.37,2013-02-12 14:32:00,
2013-02-12 08:37:00,36.2,35.4,30.15,South,184,0.0,0.0,97,0.00,CLR,FEW,0.00,WeatherDisplay:10.37,2013-02-12 14:37:00,
2013-02-12 08:42:00,36.8,35.8,30.15,South,184,0.0,0.0,96,0.00,CLR,FEW,0.00,WeatherDisplay:10.37,2013-02-12 14:42:00,
2013-02-12 08:47:00,37.3,35.7,30.15,South,184,0.0,0.0,94,0.00,CLR,FEW,0.00,WeatherDisplay:10.37,2013-02-12 14:47:00,
2013-02-12 08:52:00,37.9,36.3,30.16,South,184,0.0,0.0,94,0.00,CLR,FEW,0.00,WeatherDisplay:10.37,2013-02-12 14:52:00,
2013-02-12 08:57:00,38.7,36.9,30.16,South,184,0.0,0.0,93,0.00,CLR,FEW,0.00,WeatherDisplay:10.37,2013-02-12 14:57:00,
2013-02-12 09:02:00,39.6,37.2,30.16,SSW,205,0.0,0.1,91,0.00,CLR,FEW,0.00,WeatherDisplay:10.37,2013-02-12 15:02:00,
2013-02-12 09:07:00,41.0,37.7,30.16,SW,225,1.1,1.1,88,0.00,CLR,FEW,0.00,WeatherDisplay:10.37,2013-02-12 15:07:00,
2013-02-12 09:12:00,42.0,38.7,30.17,SW,225,1.1,1.1,88,0.00,CLR,FEW,0.00,WeatherDisplay:10.37,2013-02-12 15:12:00,
2013-02-12 09:17:00,43.0,37.9,30.17,NNW,344,2.3,2.3,82,0.00,CLR,FEW,0.00,WeatherDisplay:10.37,2013-02-12 15:17:00,
2013-02-12 09:22:00,44.0,36.9,30.16,NE,42,2.3,2.3,76,0.00,CLR,FEW,0.00,WeatherDisplay:10.37,2013-02-12 15:22:00,
2013-02-12 09:27:00,45.0,36.5,30.16,ENE,61,3.5,3.5,72,0.00,CLR,FEW,0.00,WeatherDisplay:10.37,2013-02-12 15:27:00,
2013-02-12 09:32:00,45.6,36.0,30.16,NE,45,3.5,3.5,69,0.00,CLR,FEW,0.00,WeatherDisplay:10.37,2013-02-12 15:32:00,
2013-02-12 09:37:00,46.3,36.7,30.16,NE,55,3.5,3.5,69,0.00,CLR,FEW,0.00,WeatherDisplay:10.37,2013-02-12 15:37:00,
2013-02-12 09:42:00,46.7,35.9,30.15,ENE,75,2.3,2.3,66,0.00,CLR,FEW,0.00,WeatherDisplay:10.37,2013-02-12 15:42:00,
2013-02-12 09:47:00,47.1,35.1,30.14,ENE,58,4.6,4.6,63,0.00,CLR,FEW,0.00,WeatherDisplay:10.37,2013-02-12 15:47:00,
2013-02-12 09:52:00,47.4,34.6,30.14,ESE,114,3.5,3.5,61,0.00,CLR,FEW,0.00,WeatherDisplay:10.37,2013-02-12 15:52:00,
2013-02-12 09:57:00,48.0,34.3,30.14,ESE,112,6.9,6.9,59,0.00,CLR,FEW,0.00,WeatherDisplay:10.37,2013-02-12 15:57:00,
2013-02-12 10:02:00,48.4,34.3,30.13,NE,45,5.4,5.4,58,0.00,CLR,FEW,0.00,WeatherDisplay:10.37,2013-02-12 16:02:00,
2013-02-12 10:07:00,48.5,33.5,30.12,NE,36,4.6,4.6,56,0.00,CLR,FEW,0.00,WeatherDisplay:10.37,2013-02-12 16:07:00,
2013-02-12 10:12:00,48.9,33.9,30.12,North,355,8.1,8.1,56,0.00,CLR,FEW,0.00,WeatherDisplay:10.37,2013-02-12 16:12:00,
2013-02-12 10:17:00,49.3,33.8,30.13,NE,36,4.6,4.6,55,0.00,CLR,FEW,0.00,WeatherDisplay:10.37,2013-02-12 16:17:00,
2013-02-12 10:22:00,49.7,34.2,30.12,NE,49,2.3,2.3,55,0.00,CLR,FEW,0.00,WeatherDisplay:10.37,2013-02-12 16:22:00,
2013-02-12 10:27:00,50.1,34.5,30.12,ENE,59,3.5,3.5,55,0.00,CLR,FEW,0.00,WeatherDisplay:10.37,2013-02-12 16:27:00,
2013-02-12 10:32:00,50.3,33.3,30.13,SE,139,5.8,5.8,52,0.00,CLR,FEW,0.00,WeatherDisplay:10.37,2013-02-12 16:32:00,
2013-02-12 10:37:00,50.5,32.5,30.14,East,80,4.6,4.6,50,0.00,CLR,FEW,0.00,WeatherDisplay:10.37,2013-02-12 16:37:00,
2013-02-12 10:42:00,50.6,33.1,30.15,SE,124,3.5,3.5,51,0.00,CLR,FEW,0.00,WeatherDisplay:10.37,2013-02-12 16:42:00,
2013-02-12 10:47:00,50.8,31.8,30.15,NE,51,4.6,4.6,48,0.00,CLR,FEW,0.00,WeatherDisplay:10.37,2013-02-12 16:47:00,
2013-02-12 10:52:00,50.8,32.3,30.16,East,82,5.8,5.8,49,0.00,CLR,FEW,0.00,WeatherDisplay:10.37,2013-02-12 16:52:00,
2013-02-12 10:57:00,51.0,33.0,30.15,SE,140,3.2,3.2,50,0.00,CLR,FEW,0.00,WeatherDisplay:10.37,2013-02-12 16:57:00,
2013-02-12 11:02:00,50.9,32.4,30.15,East,101,6.9,6.9,49,0.00,CLR,FEW,0.00,WeatherDisplay:10.37,2013-02-12 17:02:00,
2013-02-12 11:07:00,50.9,32.9,30.15,ENE,75,6.9,6.9,50,0.00,CLR,FEW,0.00,WeatherDisplay:10.37,2013-02-12 17:07:00,
2013-02-12 11:12:00,50.9,32.9,30.14,NE,56,4.6,4.6,50,0.00,CLR,FEW,0.00,WeatherDisplay:10.37,2013-02-12 17:12:00,
2013-02-12 11:17:00,50.7,32.2,30.14,ENE,66,4.6,4.6,49,0.00,CLR,FEW,0.00,WeatherDisplay:10.37,2013-02-12 17:17:00,
2013-02-12 11:22:00,50.8,32.8,30.14,ENE,59,2.3,2.3,50,0.00,SCT,FEW,0.00,WeatherDisplay:10.37,2013-02-12 17:22:00,
2013-02-12 11:27:00,51.0,32.5,30.15,East,100,6.4,6.4,49,0.00,SCT,FEW,0.00,WeatherDisplay:10.37,2013-02-12 17:27:00,
2013-02-12 11:32:00,51.1,32.1,30.14,East,86,6.9,6.9,48,0.00,SCT,FEW,0.00,WeatherDisplay:10.37,2013-02-12 17:32:00,
2013-02-12 11:37:00,51.3,32.8,30.14,NE,48,8.1,8.1,49,0.00,SCT,FEW,0.00,WeatherDisplay:10.37,2013-02-12 17:37:00,
2013-02-12 11:42:00,51.3,31.7,30.13,SE,128,5.8,5.8,47,0.00,SCT,FEW,0.00,WeatherDisplay:10.37,2013-02-12 17:42:00,
2013-02-12 11:47:00,51.2,31.1,30.12,ENE,76,6.9,6.9,46,0.00,SCT,FEW,0.00,WeatherDisplay:10.37,2013-02-12 17:47:00,
2013-02-12 11:52:00,51.2,31.1,30.11,NE,44,3.2,3.2,46,0.00,SCT,FEW,0.00,WeatherDisplay:10.37,2013-02-12 17:52:00,
2013-02-12 11:57:00,51.2,32.2,30.11,NE,55,5.8,5.8,48,0.00,SCT,FEW,0.00,WeatherDisplay:10.37,2013-02-12 17:57:00,
2013-02-12 12:02:00,51.1,31.6,30.11,NE,46,8.1,8.1,47,0.00,SCT,FEW,0.00,WeatherDisplay:10.37,2013-02-12 18:02:00,
2013-02-12 12:07:00,51.2,31.6,30.11,East,98,5.8,5.8,47,0.00,SCT,FEW,0.00,WeatherDisplay:10.37,2013-02-12 18:07:00,
2013-02-12 12:12:00,51.2,31.6,30.11,ENE,75,4.3,4.3,47,0.00,SCT,FEW,0.00,WeatherDisplay:10.37,2013-02-12 18:12:00,
2013-02-12 12:18:00,51.2,31.6,30.10,NE,56,2.3,2.3,47,0.00,SCT,FEW,0.00,WeatherDisplay:10.37,2013-02-12 18:18:00,
2013-02-12 12:23:00,51.3,31.7,30.10,NE,40,3.5,3.5,47,0.00,SCT,FEW,0.00,WeatherDisplay:10.37,2013-02-12 18:23:00,
2013-02-12 12:28:00,51.2,30.6,30.10,North,9,8.1,8.1,45,0.00,SCT,FEW,0.00,WeatherDisplay:10.37,2013-02-12 18:28:00,
2013-02-12 12:33:00,51.1,32.1,30.09,NNE,23,1.1,1.1,48,0.00,SCT,FEW,0.00,WeatherDisplay:10.37,2013-02-12 18:33:00,
2013-02-12 12:38:00,51.1,31.0,30.10,NE,52,4.6,4.6,46,0.00,SCT,FEW,0.00,WeatherDisplay:10.37,2013-02-12 18:38:00,
2013-02-12 12:43:00,51.1,32.6,30.11,NE,52,1.1,0.0,49,0.00,SCT,FEW,0.00,WeatherDisplay:10.37,2013-02-12 18:43:00,
2013-02-12 12:48:00,51.1,31.0,30.11,ENE,69,2.3,2.3,46,0.00,SCT,FEW,0.00,WeatherDisplay:10.37,2013-02-12 18:48:00,
2013-02-12 12:53:00,51.0,31.5,30.10,NE,46,4.6,4.6,47,0.00,SCT,FEW,0.00,WeatherDisplay:10.37,2013-02-12 18:53:00,
2013-02-12 12:58:00,51.0,32.5,30.09,NNE,15,3.5,3.5,49,0.00,SCT,FEW,0.00,WeatherDisplay:10.37,2013-02-12 18:58:00,
2013-02-12 13:03:00,50.9,32.4,30.08,ENE,63,2.3,2.3,49,0.00,BKN,FEW,0.00,WeatherDisplay:10.37,2013-02-12 19:03:00,
2013-02-12 13:08:00,51.0,32.5,30.08,ENE,76,2.3,2.3,49,0.00,BKN,FEW,0.00,WeatherDisplay:10.37,2013-02-12 19:08:00,
2013-02-12 13:13:00,50.9,31.4,30.09,East,82,2.3,2.3,47,0.00,BKN,FEW,0.00,WeatherDisplay:10.37,2013-02-12 19:13:00,
2013-02-12 13:18:00,50.9,31.9,30.09,East,81,0.0,0.0,48,0.00,BKN,FEW,0.00,WeatherDisplay:10.37,2013-02-12 19:18:00,
2013-02-12 13:23:00,50.9,30.8,30.09,NE,53,4.6,4.6,46,0.00,BKN,FEW,0.00,WeatherDisplay:10.37,2013-02-12 19:23:00,
2013-02-12 13:28:00,50.9,31.9,30.08,ESE,119,2.3,2.3,48,0.00,BKN,FEW,0.00,WeatherDisplay:10.37,2013-02-12 19:28:00,
2013-02-12 13:33:00,50.9,31.4,30.08,SE,130,5.8,5.8,47,0.00,BKN,FEW,0.00,WeatherDisplay:10.37,2013-02-12 19:33:00,
2013-02-12 13:38:00,50.7,30.7,30.08,ENE,70,3.5,3.5,46,0.00,BKN,FEW,0.00,WeatherDisplay:10.37,2013-02-12 19:38:00,
2013-02-12 13:43:00,50.6,31.1,30.08,ENE,59,3.5,3.5,47,0.00,BKN,FEW,0.00,WeatherDisplay:10.37,2013-02-12 19:43:00,
2013-02-12 13:48:00,50.6,31.6,30.06,ENE,59,2.3,2.3,48,0.00,BKN,FEW,0.00,WeatherDisplay:10.37,2013-02-12 19:48:00,
2013-02-12 13:53:00,50.6,31.6,30.08,ENE,63,5.8,5.8,48,0.00,BKN,FEW,0.00,WeatherDisplay:10.37,2013-02-12 19:53:00,
2013-02-12 13:58:00,50.6,31.1,30.07,ENE,68,2.3,2.3,47,0.00,BKN,FEW,0.00,WeatherDisplay:10.37,2013-02-12 19:58:00,
2013-02-12 14:03:00,50.6,33.6,30.07,NNE,20,3.5,3.5,52,0.00,SCT,FEW,0.00,WeatherDisplay:10.37,2013-02-12 20:03:00,
2013-02-12 14:08:00,50.5,35.4,30.07,NNE,20,0.0,0.0,56,0.00,SCT,FEW,0.00,WeatherDisplay:10.37,2013-02-12 20:08:00,
2013-02-12 14:13:00,50.4,32.9,30.07,NNW,346,1.1,0.0,51,0.00,SCT,FEW,0.00,WeatherDisplay:10.37,2013-02-12 20:13:00,
2013-02-12 14:18:00,50.3,32.4,30.07,East,80,5.8,5.8,50,0.00,SCT,FEW,0.00,WeatherDisplay:10.37,2013-02-12 20:18:00,
2013-02-12 14:23:00,50.2,31.2,30.06,ENE,74,6.9,6.9,48,0.00,SCT,FEW,0.00,WeatherDisplay:10.37,2013-02-12 20:23:00,
2013-02-12 14:28:00,50.2,33.2,30.05,NNE,13,5.8,5.8,52,0.00,SCT,FEW,0.00,WeatherDisplay:10.37,2013-02-12 20:28:00,
2013-02-12 14:33:00,50.1,32.2,30.04,North,349,3.5,0.0,50,0.00,SCT,FEW,0.00,WeatherDisplay:10.37,2013-02-12 20:33:00,
2013-02-12 14:38:00,50.1,33.1,30.03,ENE,59,5.4,5.4,52,0.00,SCT,FEW,0.00,WeatherDisplay:10.37,2013-02-12 20:38:00,
2013-02-12 14:43:00,50.0,32.1,30.03,East,96,4.6,4.6,50,0.00,SCT,FEW,0.00,WeatherDisplay:10.37,2013-02-12 20:43:00,
2013-02-12 14:48:00,49.9,32.0,30.03,NE,41,5.8,5.8,50,0.00,SCT,FEW,0.00,WeatherDisplay:10.37,2013-02-12 20:48:00,
2013-02-12 14:53:00,49.9,32.0,30.03,WNW,298,2.3,2.3,50,0.00,SCT,FEW,0.00,WeatherDisplay:10.37,2013-02-12 20:53:00,
2013-02-12 14:58:00,49.9,31.5,30.03,North,355,9.2,9.2,49,0.00,SCT,FEW,0.00,WeatherDisplay:10.37,2013-02-12 20:58:00,
2013-02-12 15:03:00,49.9,32.5,30.02,ENE,71,4.6,4.6,51,0.00,SCT,FEW,0.00,WeatherDisplay:10.37,2013-02-12 21:03:00,
2013-02-12 15:08:00,49.8,32.9,30.01,ENE,66,4.6,4.6,52,0.00,SCT,FEW,0.00,WeatherDisplay:10.37,2013-02-12 21:08:00,
2013-02-12 15:13:00,49.8,33.3,30.00,ENE,67,3.5,3.5,53,0.00,SCT,FEW,0.00,WeatherDisplay:10.37,2013-02-12 21:13:00,
2013-02-12 15:18:00,49.7,32.8,29.99,NE,55,8.1,8.1,52,0.00,SCT,FEW,0.00,WeatherDisplay:10.37,2013-02-12 21:18:00,
2013-02-12 15:23:00,49.7,32.8,29.99,East,101,2.3,2.3,52,0.00,FEW,,0.00,WeatherDisplay:10.37,2013-02-12 21:23:00,
2013-02-12 15:28:00,49.7,33.7,30.00,SSE,163,2.3,2.3,54,0.00,FEW,,0.00,WeatherDisplay:10.37,2013-02-12 21:28:00,
2013-02-12 15:33:00,49.8,32.4,30.00,SSE,151,5.8,5.8,51,0.00,FEW,,0.00,WeatherDisplay:10.37,2013-02-12 21:33:00,
2013-02-12 15:38:00,49.8,33.3,30.00,East,96,5.4,5.4,53,0.00,FEW,,0.00,WeatherDisplay:10.37,2013-02-12 21:38:00,
2013-02-12 15:43:00,49.7,33.7,30.01,ENE,65,1.1,1.1,54,0.00,FEW,,0.00,WeatherDisplay:10.37,2013-02-12 21:43:00,
2013-02-12 15:48:00,49.6,33.6,30.00,ENE,64,3.5,3.5,54,0.00,FEW,,0.00,WeatherDisplay:10.37,2013-02-12 21:48:00,
2013-02-12 15:53:00,49.4,33.9,29.99,ESE,114,2.3,2.3,55,0.00,FEW,,0.00,WeatherDisplay:10.37,2013-02-12 21:53:00,
2013-02-12 15:58:00,49.3,33.3,29.99,ESE,113,4.6,4.6,54,0.00,FEW,,0.00,WeatherDisplay:10.37,2013-02-12 21:58:00,
2013-02-12 16:03:00,49.2,33.7,30.00,ESE,111,0.0,0.0,55,0.00,FEW,,0.00,WeatherDisplay:10.37,2013-02-12 22:03:00,
2013-02-12 16:08:00,49.1,33.2,30.01,SE,134,0.0,0.1,54,0.00,FEW,,0.00,WeatherDisplay:10.37,2013-02-12 22:08:00,
2013-02-12 16:13:00,49.0,33.1,30.01,ENE,71,1.1,0.0,54,0.00,FEW,,0.00,WeatherDisplay:10.37,2013-02-12 22:13:00,
2013-02-12 16:18:00,49.0,33.5,30.00,ENE,57,1.1,1.1,55,0.00,FEW,,0.00,WeatherDisplay:10.37,2013-02-12 22:18:00,
2013-02-12 16:23:00,48.8,35.1,30.00,NNE,19,1.1,0.0,59,0.00,FEW,,0.00,WeatherDisplay:10.37,2013-02-12 22:23:00,
2013-02-12 16:28:00,48.7,35.0,30.00,NNE,19,0.0,0.0,59,0.00,FEW,,0.00,WeatherDisplay:10.37,2013-02-12 22:28:00,
2013-02-12 16:33:00,48.6,34.9,30.00,NNE,19,0.0,0.0,59,0.00,FEW,,0.00,WeatherDisplay:10.37,2013-02-12 22:33:00,
2013-02-12 16:38:00,48.5,34.8,30.01,NNE,19,0.0,0.1,59,0.00,FEW,,0.00,WeatherDisplay:10.37,2013-02-12 22:38:00,
2013-02-12 16:43:00,48.3,34.6,30.01,NNE,19,1.1,0.0,59,0.00,FEW,,0.00,WeatherDisplay:10.37,2013-02-12 22:43:00,
2013-02-12 16:48:00,48.3,35.0,30.00,NNE,19,0.0,0.0,60,0.00,FEW,,0.00,WeatherDisplay:10.37,2013-02-12 22:48:00,
2013-02-12 16:53:00,48.2,35.8,29.99,NNE,19,1.1,1.1,62,0.00,FEW,,0.00,WeatherDisplay:10.37,2013-02-12 22:53:00,
2013-02-12 16:58:00,48.0,36.4,29.99,NE,53,2.3,2.3,64,0.00,FEW,,0.00,WeatherDisplay:10.37,2013-02-12 22:58:00,
2013-02-12 17:03:00,47.9,35.1,29.98,ENE,67,1.1,1.1,61,0.00,CLR,FEW,0.00,WeatherDisplay:10.37,2013-02-12 23:03:00,
2013-02-12 17:08:00,47.9,33.8,29.97,NE,40,4.6,4.6,58,0.00,CLR,FEW,0.00,WeatherDisplay:10.37,2013-02-12 23:08:00,
2013-02-12 17:13:00,47.9,34.7,29.97,East,89,3.5,3.5,60,0.00,CLR,FEW,0.00,WeatherDisplay:10.37,2013-02-12 23:13:00,
2013-02-12 17:18:00,47.8,34.6,29.97,NE,47,3.5,3.5,60,0.00,CLR,FEW,0.00,WeatherDisplay:10.37,2013-02-12 23:18:00,
2013-02-12 17:23:00,47.8,34.6,29.96,East,92,4.6,4.6,60,0.00,CLR,FEW,0.00,WeatherDisplay:10.37,2013-02-12 23:23:00,
2013-02-12 17:28:00,47.7,34.1,29.96,NNE,27,2.3,2.3,59,0.00,CLR,FEW,0.00,WeatherDisplay:10.37,2013-02-12 23:28:00,
2013-02-12 17:33:00,47.7,34.5,29.97,NE,35,1.1,0.0,60,0.00,CLR,FEW,0.00,WeatherDisplay:10.37,2013-02-12 23:33:00,
2013-02-12 17:39:00,47.7,34.5,29.97,NE,49,1.1,1.1,60,0.00,CLR,FEW,0.00,WeatherDisplay:10.37,2013-02-12 23:39:00,
2013-02-12 17:44:00,47.6,33.5,29.97,ENE,71,5.8,5.8,58,0.00,CLR,FEW,0.00,WeatherDisplay:10.37,2013-02-12 23:44:00,
2013-02-12 17:49:00,47.6,33.1,29.97,East,90,1.1,1.1,57,0.00,CLR,FEW,0.00,WeatherDisplay:10.37,2013-02-12 23:49:00,
2013-02-12 17:54:00,47.6,33.5,29.96,ENE,73,4.6,4.6,58,0.00,CLR,FEW,0.00,WeatherDisplay:10.37,2013-02-12 23:54:00,
2013-02-12 17:59:00,47.5,33.9,29.97,ENE,66,0.0,0.0,59,0.00,CLR,FEW,0.00,WeatherDisplay:10.37,2013-02-12 23:59:00,
2013-02-12 18:04:00,47.4,33.8,29.96,ENE,63,0.0,0.0,59,0.00,CLR,FEW,0.00,WeatherDisplay:10.37,2013-02-13 00:04:00,
2013-02-12 18:09:00,47.2,34.8,29.96,NNE,32,0.0,0.0,62,0.00,CLR,FEW,0.00,WeatherDisplay:10.37,2013-02-13 00:09:00,
2013-02-12 18:14:00,46.9,35.7,29.96,North,355,1.1,1.1,65,0.00,CLR,FEW,0.00,WeatherDisplay:10.37,2013-02-13 00:14:00,
2013-02-12 18:19:00,46.7,35.6,29.95,North,355,0.0,0.1,65,0.00,CLR,FEW,0.00,WeatherDisplay:10.37,2013-02-13 00:19:00,
2013-02-12 18:24:00,46.7,34.0,29.94,East,85,3.5,3.5,61,0.00,FEW,,0.00,WeatherDisplay:10.37,2013-02-13 00:24:00,
2013-02-12 18:29:00,46.7,34.0,29.95,SSE,165,0.0,0.0,61,0.00,FEW,,0.00,WeatherDisplay:10.37,2013-02-13 00:29:00,
2013-02-12 18:34:00,46.8,34.0,29.95,ENE,67,0.0,0.0,61,0.00,FEW,,0.00,WeatherDisplay:10.37,2013-02-13 00:34:00,
2013-02-12 18:39:00,46.8,33.2,29.97,ENE,66,1.1,1.1,59,0.00,FEW,,0.00,WeatherDisplay:10.37,2013-02-13 00:39:00,
2013-02-12 18:44:00,46.9,33.3,29.97,ENE,67,2.3,2.3,59,0.00,FEW,,0.00,WeatherDisplay:10.37,2013-02-13 00:44:00,
2013-02-12 18:49:00,47.0,32.1,29.98,ENE,73,3.5,3.5,56,0.00,FEW,,0.00,WeatherDisplay:10.37,2013-02-13 00:49:00,
2013-02-12 18:54:00,47.1,32.6,29.98,ENE,77,2.3,2.3,57,0.00,FEW,,0.00,WeatherDisplay:10.37,2013-02-13 00:54:00,
2013-02-12 18:59:00,47.1,33.1,29.98,ENE,77,0.0,0.0,58,0.00,FEW,,0.00,WeatherDisplay:10.37,2013-02-13 00:59:00,
2013-02-12 19:04:00,47.0,33.0,29.98,ENE,77,0.0,0.0,58,0.00,FEW,,0.00,WeatherDisplay:10.37,2013-02-13 01:04:00,
2013-02-12 19:09:00,46.9,32.9,29.97,ENE,76,0.0,0.0,58,0.00,FEW,,0.00,WeatherDisplay:10.37,2013-02-13 01:09:00,
2013-02-12 19:14:00,46.7,34.0,29.97,ENE,77,1.1,0.0,61,0.00,FEW,,0.00,WeatherDisplay:10.37,2013-02-13 01:14:00,
2013-02-12 19:19:00,46.5,34.2,29.97,North,351,3.5,3.5,62,0.00,FEW,,0.00,WeatherDisplay:10.37,2013-02-13 01:19:00,
2013-02-12 19:24:00,46.3,33.6,29.96,NE,43,1.1,1.1,61,0.00,BKN,FEW,0.00,WeatherDisplay:10.37,2013-02-13 01:24:00,
2013-02-12 19:29:00,46.3,33.6,29.96,NNE,12,2.3,2.3,61,0.00,BKN,FEW,0.00,WeatherDisplay:10.37,2013-02-13 01:29:00,
2013-02-12 19:34:00,46.3,34.4,29.95,ENE,57,4.6,4.6,63,0.00,BKN,FEW,0.00,WeatherDisplay:10.37,2013-02-13 01:34:00,
2013-02-12 19:39:00,46.4,33.7,29.95,NE,40,1.1,1.1,61,0.00,BKN,FEW,0.00,WeatherDisplay:10.37,2013-02-13 01:39:00,
2013-02-12 19:44:00,46.3,33.6,29.95,ENE,72,3.5,3.5,61,0.00,BKN,FEW,0.00,WeatherDisplay:10.37,2013-02-13 01:44:00,
2013-02-12 19:49:00,46.3,33.6,29.95,ENE,69,3.5,3.5,61,0.00,BKN,FEW,0.00,WeatherDisplay:10.37,2013-02-13 01:49:00,
2013-02-12 19:54:00,46.3,33.2,29.95,NE,35,2.3,2.3,60,0.00,BKN,FEW,0.00,WeatherDisplay:10.37,2013-02-13 01:54:00,
2013-02-12 19:59:00,46.3,33.2,29.95,East,96,3.5,3.5,60,0.00,BKN,FEW,0.00,WeatherDisplay:10.37,2013-02-13 01:59:00,
2013-02-12 20:04:00,46.2,33.5,29.95,East,86,2.3,2.3,61,0.00,-DZ,FEW,0.00,WeatherDisplay:10.37,2013-02-13 02:04:00,
2013-02-12 20:09:00,46.2,33.1,29.95,ENE,67,3.5,3.5,60,0.00,-DZ,FEW,0.00,WeatherDisplay:10.37,2013-02-13 02:09:00,
2013-02-12 20:14:00,46.2,33.1,29.95,ENE,60,3.5,3.5,60,0.00,-DZ,FEW,0.00,WeatherDisplay:10.37,2013-02-13 02:14:00,
2013-02-12 20:19:00,46.3,33.6,29.95,ENE,67,1.1,1.1,61,0.00,-DZ,FEW,0.00,WeatherDisplay:10.37,2013-02-13 02:19:00,
2013-02-12 20:24:00,46.3,33.6,29.95,NE,54,3.5,3.5,61,0.00,FEW,,0.00,WeatherDisplay:10.37,2013-02-13 02:24:00,
2013-02-12 20:29:00,46.3,34.0,29.94,ENE,58,2.3,2.3,62,0.00,FEW,,0.00,WeatherDisplay:10.37,2013-02-13 02:29:00,
2013-02-12 20:34:00,46.2,34.3,29.94,ENE,77,3.5,3.5,63,0.00,FEW,,0.00,WeatherDisplay:10.37,2013-02-13 02:34:00,
2013-02-12 20:39:00,46.1,33.8,29.94,NE,45,2.3,2.3,62,0.00,FEW,,0.00,WeatherDisplay:10.37,2013-02-13 02:39:00,
2013-02-12 20:44:00,46.1,34.2,29.94,ENE,59,1.1,1.1,63,0.00,FEW,,0.00,WeatherDisplay:10.37,2013-02-13 02:44:00,
2013-02-12 20:49:00,46.0,34.1,29.93,ENE,78,2.3,2.3,63,0.00,FEW,,0.00,WeatherDisplay:10.37,2013-02-13 02:49:00,
2013-02-12 20:54:00,46.0,33.7,29.92,NE,49,4.6,4.6,62,0.00,FEW,,0.00,WeatherDisplay:10.37,2013-02-13 02:54:00,
2013-02-12 20:59:00,46.0,33.7,29.92,East,80,5.8,5.8,62,0.00,FEW,,0.00,WeatherDisplay:10.37,2013-02-13 02:59:00,
2013-02-12 21:04:00,45.9,34.4,29.91,ENE,64,4.3,4.3,64,0.00,FEW,,0.00,WeatherDisplay:10.37,2013-02-13 03:04:00,
2013-02-12 21:09:00,45.9,34.0,29.92,ENE,72,3.5,3.5,63,0.00,FEW,,0.00,WeatherDisplay:10.37,2013-02-13 03:09:00,
2013-02-12 21:14:00,45.9,34.4,29.91,East,82,5.8,5.8,64,0.00,FEW,,0.00,WeatherDisplay:10.37,2013-02-13 03:14:00,
2013-02-12 21:19:00,45.8,34.3,29.91,ENE,78,4.6,4.6,64,0.00,FEW,,0.00,WeatherDisplay:10.37,2013-02-13 03:19:00,
2013-02-12 21:24:00,45.7,34.6,29.91,ENE,61,3.5,3.5,65,0.00,OVC,FEW,0.00,WeatherDisplay:10.37,2013-02-13 03:24:00,
2013-02-12 21:29:00,45.7,33.8,29.90,East,90,5.8,5.8,63,0.00,OVC,FEW,0.00,WeatherDisplay:10.37,2013-02-13 03:29:00,
2013-02-12 21:34:00,45.8,34.3,29.90,ENE,73,5.8,5.8,64,0.00,OVC,FEW,0.00,WeatherDisplay:10.37,2013-02-13 03:34:00,
2013-02-12 21:39:00,45.8,33.9,29.90,NE,51,4.6,4.6,63,0.00,OVC,FEW,0.00,WeatherDisplay:10.37,2013-02-13 03:39:00,
2013-02-12 21:44:00,45.9,34.0,29.90,ENE,73,4.6,4.6,63,0.00,OVC,FEW,0.00,WeatherDisplay:10.37,2013-02-13 03:44:00,
2013-02-12 21:49:00,45.9,34.4,29.89,NE,53,4.6,4.6,64,0.00,OVC,FEW,0.00,WeatherDisplay:10.37,2013-02-13 03:49:00,
2013-02-12 21:54:00,45.9,34.4,29.89,ENE,67,2.3,2.3,64,0.00,OVC,FEW,0.00,WeatherDisplay:10.37,2013-02-13 03:54:00,
2013-02-12 21:59:00,45.9,34.0,29.89,ENE,65,5.8,5.8,63,0.00,OVC,FEW,0.00,WeatherDisplay:10.37,2013-02-13 03:59:00,
2013-02-12 22:04:00,45.9,34.0,29.88,NE,54,5.8,5.8,63,0.00,OVC,FEW,0.00,WeatherDisplay:10.37,2013-02-13 04:04:00,
2013-02-12 22:09:00,45.9,34.4,29.88,ENE,73,1.1,1.3,64,0.00,OVC,FEW,0.00,WeatherDisplay:10.37,2013-02-13 04:09:00,
2013-02-12 22:14:00,45.9,33.6,29.88,ENE,67,3.5,3.5,62,0.00,OVC,FEW,0.00,WeatherDisplay:10.37,2013-02-13 04:14:00,
2013-02-12 22:19:00,45.9,34.0,29.88,ENE,58,1.1,1.1,63,0.00,OVC,FEW,0.00,WeatherDisplay:10.37,2013-02-13 04:19:00,
2013-02-12 22:24:00,45.9,33.6,29.88,NNE,28,8.1,8.1,62,0.00,OVC,FEW,0.00,WeatherDisplay:10.37,2013-02-13 04:24:00,
2013-02-12 22:29:00,45.9,34.0,29.88,ENE,67,3.5,3.5,63,0.00,OVC,FEW,0.00,WeatherDisplay:10.37,2013-02-13 04:29:00,
2013-02-12 22:34:00,45.9,33.6,29.88,NE,43,3.5,3.5,62,0.00,OVC,FEW,0.00,WeatherDisplay:10.37,2013-02-13 04:34:00,
2013-02-12 22:39:00,46.0,33.7,29.87,East,93,8.1,8.1,62,0.00,OVC,FEW,0.00,WeatherDisplay:10.37,2013-02-13 04:39:00,
2013-02-12 22:44:00,45.9,33.6,29.88,NE,56,3.5,3.5,62,0.00,OVC,FEW,0.00,WeatherDisplay:10.37,2013-02-13 04:44:00,
2013-02-12 22:49:00,45.9,32.8,29.88,ENE,69,2.3,2.6,60,0.00,OVC,FEW,0.00,WeatherDisplay:10.37,2013-02-13 04:49:00,
2013-02-12 22:54:00,46.0,33.3,29.87,ENE,74,5.8,5.8,61,0.00,OVC,FEW,0.00,WeatherDisplay:10.37,2013-02-13 04:54:00,
2013-02-12 23:00:00,45.9,33.6,29.87,ENE,65,0.0,0.0,62,0.00,OVC,FEW,0.00,WeatherDisplay:10.37,2013-02-13 05:00:00,
2013-02-12 23:05:00,45.8,32.7,29.87,ENE,59,2.3,2.3,60,0.00,OVC,FEW,0.00,WeatherDisplay:10.37,2013-02-13 05:05:00,
2013-02-12 23:10:00,45.9,32.8,29.87,ENE,69,3.5,3.5,60,0.00,OVC,FEW,0.00,WeatherDisplay:10.37,2013-02-13 05:10:00,
2013-02-12 23:15:00,46.0,33.3,29.86,ENE,71,2.3,2.3,61,0.00,OVC,FEW,0.00,WeatherDisplay:10.37,2013-02-13 05:15:00,
2013-02-12 23:20:00,45.9,34.0,29.86,ENE,71,0.0,0.2,63,0.00,OVC,FEW,0.00,WeatherDisplay:10.37,2013-02-13 05:20:00,